Weather History for San Angelo, TX

Change the Weather History Date:

Friday, April 26, 2013

  Actual Average Record
Temperature  
Mean Temperature 76 °F 69 °F  
Max Temperature 90 °F 83 °F 105 °F (2012)
Min Temperature 62 °F 55 °F 38 °F (2007)
Degree Days  
Heating Degree Days 0 1  
Month to date heating degree days 98 84  
Since 1 July heating degree days 1887 2302  
Cooling Degree Days 11 5  
Month to date cooling degree days 138 93  
Year to date cooling degree days 213 131  
Growing Degree Days 26 (Base 50)    
Moisture  
Dew Point 52 °F    
Average Humidity 48    
Maximum Humidity 78    
Minimum Humidity 17    
Precipitation  
Precipitation 0.00 in 0.05 in 2.35 in (1957)
Month to date precipitation 0.98 1.18  
Year to date precipitation 2.81 4.96  
Snow  
Snow 0.00 in 0.00 in 0.00 in (2002)
Month to date snowfall T 0.0  
Since 1 July snowfall 2.8 2.2  
Snow Depth 0.00 in    
Sea Level Pressure  
Sea Level Pressure 30.00 in    
Wind  
Wind Speed 13 mph (South)    
Max Wind Speed 25 mph    
Max Gust Speed 32 mph    
Visibility 10 miles    
Events      
T = Trace of Precipitation, MM = Missing Value Source: NWS Daily Summary

Daily Weather History Graph

Daily Weather History Graph

Search for Another Location

Airport:

Trip Planner

Search our weather history database for the weather conditions in past years. The results will help you decide how hot, cold, wet, or windy it might be!

Date:

Astronomy

Apr. 26, 2013 Rise Set
Actual Time 7:01 AM CDT 8:18 PM CDT
Civil Twilight 6:36 AM CDT 8:43 PM CDT
Nautical Twilight 6:05 AM CDT 9:14 PM CDT
Astronomical Twilight 5:34 AM CDT 9:45 PM CDT
Moon 9:37 PM CDT (4/26) 7:34 AM CDT (4/26)
Length of Visible Light 14h 07m
Length of Day
13h 16m
Full, 99% of the Moon is Illuminated
Apr 26
Full
May 2
Last Quarter
May 9
New
May 17
First Quarter
May 24
Full

Hourly Weather History & Observations

Time (CDT) Temp. Heat Index Dew Point Humidity Pressure Visibility Wind Dir Wind Speed Gust Speed Precip Events Conditions
12:30 AM 64.4 °F - 48.2 °F 56% 30.11 in 10.0 mi South 11.5 mph - N/A   Overcast
12:51 AM 64.0 °F - 48.9 °F 58% 30.07 in 10.0 mi South 11.5 mph - N/A   Overcast
1:51 AM 64.0 °F - 46.9 °F 54% 30.03 in 10.0 mi South 11.5 mph - N/A   Overcast
2:51 AM 63.0 °F - 46.9 °F 56% 30.01 in 10.0 mi South 13.8 mph 24.2 mph N/A   Overcast
3:51 AM 63.0 °F - 50.0 °F 63% 30.00 in 10.0 mi South 10.4 mph - N/A   Overcast
4:51 AM 63.0 °F - 50.0 °F 63% 29.97 in 10.0 mi South 18.4 mph 25.3 mph N/A   Overcast
5:19 AM 62.6 °F - 51.8 °F 68% 30.04 in 10.0 mi South 17.3 mph 21.9 mph N/A   Overcast
5:51 AM 63.0 °F - 53.1 °F 70% 30.00 in 10.0 mi South 13.8 mph 23.0 mph N/A   Overcast
6:51 AM 63.0 °F - 54.0 °F 72% 30.03 in 10.0 mi SSW 10.4 mph - N/A   Overcast
7:51 AM 62.1 °F - 55.0 °F 78% 30.05 in 10.0 mi SSW 8.1 mph - N/A   Overcast
8:46 AM 62.6 °F - 55.4 °F 77% 30.09 in 10.0 mi South 15.0 mph - N/A   Overcast
8:51 AM 62.1 °F - 55.9 °F 80% 30.05 in 10.0 mi South 11.5 mph - N/A   Overcast
9:01 AM 62.6 °F - 55.4 °F 77% 30.09 in 10.0 mi South 10.4 mph - N/A   Overcast
9:51 AM 64.0 °F - 55.9 °F 75% 30.05 in 10.0 mi South 9.2 mph 23.0 mph N/A   Overcast
10:51 AM 70.0 °F - 57.0 °F 63% 30.05 in 10.0 mi South 21.9 mph 32.2 mph N/A   Mostly Cloudy
11:19 AM 73.4 °F - 57.2 °F 57% 30.09 in 10.0 mi SSW 24.2 mph 27.6 mph N/A   Scattered Clouds
11:51 AM 75.0 °F - 57.0 °F 53% 30.04 in 10.0 mi SSW 18.4 mph 28.8 mph N/A   Partly Cloudy
12:51 PM 78.1 °F - 57.0 °F 48% 30.02 in 10.0 mi South 17.3 mph 25.3 mph N/A   Clear
1:51 PM 81.0 °F 80.8 °F 55.9 °F 42% 29.99 in 10.0 mi South 17.3 mph 21.9 mph N/A   Clear
2:51 PM 84.0 °F - 52.0 °F 33% 29.96 in 10.0 mi SW 12.7 mph - N/A   Clear
3:51 PM 86.0 °F - 46.0 °F 25% 29.94 in 10.0 mi South 6.9 mph - N/A   Clear
4:51 PM 89.1 °F - 43.0 °F 20% 29.91 in 10.0 mi SW 8.1 mph - N/A   Clear
5:51 PM 90.0 °F - 39.9 °F 17% 29.89 in 10.0 mi SW 6.9 mph - N/A   Clear
6:51 PM 89.1 °F - 39.0 °F 17% 29.88 in 10.0 mi SSE 9.2 mph - N/A   Clear
7:51 PM 86.0 °F - 43.0 °F 22% 29.89 in 10.0 mi South 8.1 mph - N/A   Clear
8:51 PM 79.0 °F - 55.9 °F 45% 29.92 in 10.0 mi SSE 15.0 mph 21.9 mph N/A   Clear
9:51 PM 75.0 °F - 57.0 °F 53% 29.94 in 10.0 mi South 19.6 mph 28.8 mph N/A   Clear
10:51 PM 72.0 °F - 57.9 °F 61% 29.97 in 10.0 mi South 17.3 mph 26.5 mph N/A   Clear
11:51 PM 71.1 °F - 57.9 °F 63% 29.99 in 10.0 mi South 16.1 mph - N/A   Clear